Flag for Belgium Weather past 2 weeks in Brussels, Belgium

Now
48 °F

Cool.


Feels Like: 45 °F
Forecast: 38 / 47 °F
Wind: 6 mph from Southwest

Location: Uccle

Current Time: Mar 1, 2015 at 10:38:03 PM

Latest Report: Mar 1, 2015 at 9:00 PM


Visibility: N/A

Pressure: 29.58 "Hg

Humidity: 72%

Dew point: 39 °F

Location of BrusselsLocation

Historic Weather in Brussels — Graph

°F

Brussels temperature yesterday

Maximum temperature yesterday: 48 °F (at 4:00 PM)
Minimum temperature yesterday: 31 °F (at 1:00 AM)
Average temperature yesterday: 40 °F

Past Weeks' High & Low Weather Summary

 TemperatureHumidityPressure
High51 °F (Mar 1, 3:00 PM)97% (Feb 18, 11:00 AM)30.78 "Hg (Feb 18, 11:00 AM)
Low29 °F (Feb 18, 7:00 AM)51% (Feb 28, 2:00 PM)29.35 "Hg (Feb 23, 6:00 AM)
Average40 °F84%29.96 "Hg
* Reported Feb 14 9:00 PM — Mar 1 9:00 PM, Brussels, Weather by CustomWeather, © 2015

Note: Actual official high and low records may vary slightly from our data, if they occured in-between our weather recording intervals... More about our weather records

Advertising

Brussels weather history for previous 24 hours

 ConditionsComfort  
Time TempWeatherWind HumidityBarometerVisibility
9:00 PM
Sun, Mar 1
48 °FCool.6 mph72%29.58 "HgN/A
8:00 PM47 °FCool.3 mph71%29.61 "HgN/A
7:00 PM47 °FCool.3 mph66%29.62 "HgN/A
6:00 PM48 °FCool.6 mph66%29.65 "HgN/A
5:00 PM48 °FCool.8 mph73%29.65 "HgN/A
4:00 PM49 °FCool.7 mph68%29.65 "HgN/A
3:00 PM51 °FCool.8 mph67%29.66 "HgN/A
2:00 PM48 °FCool.7 mph70%29.67 "HgN/A
1:00 PM46 °FCool.6 mph81%29.67 "HgN/A
12:00 PM49 °FCool.7 mph66%29.66 "HgN/A
11:00 AM49 °FCool.7 mph70%29.66 "HgN/A
10:00 AM48 °FCool.7 mph76%29.66 "HgN/A
9:00 AM48 °FCool.7 mph77%29.64 "HgN/A
8:00 AM47 °FCool.7 mph82%29.60 "HgN/A
7:00 AM48 °FCool.6 mph91%29.58 "HgN/A
6:00 AM47 °FCool.8 mph92%29.57 "HgN/A
5:00 AM46 °FCool.8 mph90%29.58 "HgN/A
3:00 AM43 °FQuite cool.12 mph89%29.60 "HgN/A
2:00 AM42 °FQuite cool.8 mph84%29.65 "HgN/A
1:00 AM45 °FQuite cool.10 mph71%29.67 "HgN/A
12:00 AM45 °FCool.9 mph65%29.72 "HgN/A
11:00 PM
Sat, Feb 28
45 °FCool.10 mph62%29.74 "HgN/A
10:00 PM45 °FCool.8 mph62%29.77 "HgN/A
Weather by CustomWeather, © 2015

See weather overviewHow to use our weather pages